Meteo Giornale » Osservazioni meteo Stati Uniti (USA) » Allentown Lehigh Valley

ore: 14:51 - Osservazioni Meteo Allentown Lehigh Valley
Lat. 40° 39' N Lon. 75° 26' W Alt. 120 metri s.l.m.

nuvoloso

30 °C

Nuvoloso

Temp. 24 Ore

21 °C

30 °C

Sud-Ovest

14.8 Km/h

Dew point 23 °C

Umidità 66 %

Visibilità  10 Km

Il sole sorge alle ore 06:29

Il sole tramonta alle ore 19:34

Data e Ora Cielo e Fenomeni T °C DP °C Um. % Pres. hPa Vis. km Vento km/h
Oggi h: 14:51 nuvoloso Nuvoloso 30 23 66 1014 10 SO 14.8
Oggi h: 13:51 nuvoloso Nuvoloso 29 23 70 1014 10 O/SO 14.8
Oggi h: 12:51 molto_nuvoloso Molto Nuvoloso 27 22 74 1015 10 SO 9.3
Oggi h: 11:51 nuvoloso Nuvoloso 26 22 78 1016 10 N 0
Oggi h: 10:51 molto_nuvoloso Molto Nuvoloso 25 22 83 1016 10 O/SO 9.3
Oggi h: 09:51 nuvoloso Nuvoloso 25 22 83 1015 14 S/SO 13
Oggi h: 08:51 poco_nuvoloso Poco Nuvoloso 23 21 88 1016 11 N 5.5
Oggi h: 07:51 foschia Foschia 22 21 94 1016 10 N 5.5
Oggi h: 06:51 poco_nuvoloso Poco Nuvoloso 21 20 94 1016 13 N 0
Oggi h: 05:51 nuvoloso Nuvoloso 21 20 94 1016 13 N 0
Oggi h: 04:51 molto_nuvoloso Molto Nuvoloso 21 20 94 1016 14 N 0
Oggi h: 03:51 sereno Sereno 21 19 88 1016 14 N 0
Oggi h: 02:51 nuvoloso Nuvoloso 21 20 94 1017 14 N 0
Oggi h: 01:51 coperto Coperto 21 20 94 1017 10 N 0
Oggi h: 00:51 coperto Coperto 21 20 94 1017 10 N 5.5
Ieri h: 23:51 molto_nuvoloso Molto Nuvoloso 21 20 94 1018 10 N 0
Ieri h: 22:51 coperto Coperto 21 20 94 1018 10 N 0
Ieri h: 21:51 molto_nuvoloso Molto Nuvoloso 21 20 94 1018 10 N 0
Ieri h: 20:51 molto_nuvoloso Molto Nuvoloso 22 19 83 1018 10 N 0
Ieri h: 19:51 poco_nuvoloso Poco Nuvoloso 22 19 83 1018 10 N 0
Ieri h: 18:51 molto_nuvoloso Molto Nuvoloso 23 20 83 1018 10 N 0
Ieri h: 18:41 molto_nuvoloso Molto Nuvoloso 23 20 83 1018 10 N 0
Ieri h: 18:04 coperto Coperto 23 19 78 1018 10 N 0
Ieri h: 16:51 coperto Coperto 23 19 78 1019 10 N 0
Ieri h: 15:51 molto_nuvoloso Molto Nuvoloso 24 18 69 1019 10 N 0